Regional Weather Roundup
Issued by NWS Midland/Odessa, TX

Home | Current Version | Previous Version | Text Only | Print | Product List | Glossary On
Versions: 1 2 3 4 5 6 7 8 9 10 11 12 13 14 15 16 17 18 19 20 21 22 23 24 25 26 27 28 29 30 31 32 33 34 35 36 37 38 39 40 41 42 43 44 45 46 47 48 49 50
000
ASUS44 KMAF 171710
RWRMAF
MIDLAND AREA WEATHER ROUNDUP
NATIONAL WEATHER SERVICE MIDLAND TX
1200 PM CDT WED SEP 17 2014

...IN SOUTHWEST TEXAS AND SOUTHEAST NEW MEXICO...

CITY           SKY/WX    TMP DP  RH WIND       PRES   REMARKS
ALPINE         MOSUNNY   76  61  59 SW8       30.19S
ANDREWS        FAIR      80  67  64 S8        30.08S
ARTESIA        NOT AVBL
BIG SPRING     PTSUNNY   82  67  62 SW8       30.07F
CARLSBAD       MOSUNNY   76  70  82 VRB5      30.07F
DRYDEN           N/A     82  71  69 SE3       30.01F
FORT STOCKTON  MOSUNNY   79  67  66 S10       30.06F
GUAD PASS      MOSUNNY   72  59  63 VRB5      30.20F
HOBBS          MOSUNNY   75  68  78 S9        30.10F
MARFA          MOSUNNY   75  61  60 SE14      30.17F
MIDLAND AIRPK  NOT AVBL
MIDLAND INTL   MOSUNNY   81  68  64 SW8       30.06F
ODESSA         MOSUNNY   80  67  64 S8        30.07F
PECOS          MOSUNNY   78  65  63 S3        30.04S
PRESIDIO       FAIR      82  62  51 CALM      30.03F
SEMINOLE       SUNNY     79  66  64 SW6       30.09F
SNYDER         LGT RAIN  77  70  81 SW8       30.05F
WINK           MOSUNNY   82  66  58 S12       30.03F
$$
...OTHER STATIONS IN TEXAS...

CITY           SKY/WX    TMP DP  RH WIND       PRES   REMARKS
ABILENE        MOSUNNY   88  67  49 W10       30.00F
AMARILLO       CLOUDY    77  64  64 SW18G25   30.08F
AUSTIN         PTSUNNY   85  74  69 VRB3      29.96F
BROWNSVILLE    MOSUNNY   88  78  72 S14       29.95F HX 101
CORPUS CHRISTI PTSUNNY   87  75  67 S9        29.95S
DALLAS FTW     PTSUNNY   87  70  56 S5        29.96F
DEL RIO        MOSUNNY   85  73  67 VRB7      29.95F
EL PASO        MOSUNNY   75  64  68 NE5       30.08F
HOUSTON INT    LGT RAIN  78  75  90 NW3       29.96S
LUBBOCK        LGT RAIN  73  66  78 SW7       30.08F
SAN ANGELO     PTSUNNY   85  69  58 SW5       30.00F
SAN ANTONIO    PTSUNNY   84  73  69 S8        29.97F
WACO           CLOUDY    82  72  71 VRB6      29.97F
WICHITA FALLS  NOT AVBL
$$
...OTHER LOCATIONS IN NEW MEXICO...

CITY           SKY/WX    TMP DP  RH WIND       PRES   REMARKS
ALAMAGORDO     CLOUDY    68  63  83 N7        30.13F
ALBUQUERQUE    LGT RAIN  63  60  90 NW6       30.20F
CANNON AFB     LGT RAIN  66  66  99 W8        30.15S
CLOVIS           N/A     68  63  83 SW14      30.16S
HOLLOMAN AFB   PTSUNNY   71  63  76 VRB3      30.11F
ROSWELL        PTSUNNY   72  65  78 N5        30.10F
RUIDOSO        CLOUDY    57  57 100 CALM      30.29R
SANTA FE       CLOUDY    62  53  72 SW5       30.24F
TRUTH OR CONSE LGT RAIN  64  63  96 E6        30.15F
TUCUMCARI      CLOUDY    75  60  59 W15       30.09F
$$


USA.gov is the U.S. government's official web portal to all federal, state and local government web resources and services.